Weather History for Guymon, OK

Change the Weather History Date:

Thursday, December 6, 2012

  Actual Average Record
Temperature  
Mean Temperature 50 °F 37 °F  
Max Temperature 62 °F 51 °F 64 °F (2001)
Min Temperature 37 °F 23 °F 5 °F (2005)
Degree Days  
Heating Degree Days 15 28  
Month to date heating degree days 80 163  
Since 1 July heating degree days 813 1054  
Cooling Degree Days 0 0  
Month to date cooling degree days 0 0  
Year to date cooling degree days 1917 1482  
Moisture  
Dew Point 26 °F    
Average Humidity 49    
Maximum Humidity 64    
Minimum Humidity 34    
Precipitation  
Precipitation 0.00 in 0.03 in 0.19 in (1998)
Month to date precipitation T 0.23  
Year to date precipitation 10.79 18.89  
Snow  
Snow 0.00 in - - ()
Month to date snowfall 0.0  
Since 1 July snowfall 0.0  
Snow Depth 0.00 in    
Sea Level Pressure  
Sea Level Pressure 29.82 in    
Wind  
Wind Speed 13 mph (North)    
Max Wind Speed 28 mph    
Max Gust Speed 33 mph    
Visibility 10 miles    
Events      
T = Trace of Precipitation, MM = Missing Value Source: NWS Daily Summary

Daily Weather History Graph

Daily Weather History Graph

Search for Another Location

Airport:

Trip Planner

Search our weather history database for the weather conditions in past years. The results will help you decide how hot, cold, wet, or windy it might be!

Date:

Astronomy

Dec. 06, 2012 Rise Set
Actual Time 7:44 AM CST 5:29 PM CST
Civil Twilight 7:16 AM CST 5:58 PM CST
Nautical Twilight 6:43 AM CST 6:30 PM CST
Astronomical Twilight 6:12 AM CST 7:02 PM CST
Moon 12:13 AM CST (12/6) 12:47 PM CST (12/6)
Length of Visible Light 10h 42m
Length of Day
9h 45m
Waning Gibbous, 49% of the Moon is Illuminated
Dec 6
Waning Gibbous
Dec 13
New
Dec 19
First Quarter
Dec 28
Full
Jan 4
Last Quarter

Hourly Weather History & Observations

Time (CST) Temp. Windchill Dew Point Humidity Pressure Visibility Wind Dir Wind Speed Gust Speed Precip Events Conditions
12:53 AM 45.0 °F 43.5 °F 27.0 °F 49% 29.74 in 10.0 mi SSW 3.5 mph - N/A   Clear
1:53 AM 39.0 °F 35.7 °F 26.1 °F 60% 29.74 in 10.0 mi SW 4.6 mph - N/A   Clear
2:53 AM 39.9 °F 34.5 °F 27.0 °F 60% 29.71 in 10.0 mi SSW 8.1 mph - N/A   Clear
3:53 AM 37.9 °F - 26.1 °F 62% 29.71 in 10.0 mi Calm Calm - N/A   Clear
4:53 AM 48.0 °F - 25.0 °F 41% 29.68 in 10.0 mi WNW 13.8 mph - N/A   Clear
5:53 AM 48.9 °F - 26.1 °F 41% 29.71 in 10.0 mi NNW 17.3 mph - N/A   Clear
6:53 AM 48.9 °F - 27.0 °F 43% 29.75 in 10.0 mi North 13.8 mph - N/A   Clear
7:53 AM 50.0 °F - 28.0 °F 43% 29.77 in 10.0 mi NNW 18.4 mph 25.3 mph N/A   Clear
8:53 AM 51.1 °F - 30.0 °F 44% 29.79 in 10.0 mi North 19.6 mph 27.6 mph N/A   Clear
9:53 AM 55.9 °F - 30.9 °F 39% 29.79 in 10.0 mi North 19.6 mph 25.3 mph N/A   Clear
10:53 AM 59.0 °F - 34.0 °F 39% 29.81 in 10.0 mi North 25.3 mph 33.4 mph N/A   Clear
11:53 AM 60.1 °F - 33.1 °F 36% 29.81 in 10.0 mi North 21.9 mph 26.5 mph N/A   Clear
12:53 PM 62.1 °F - 33.1 °F 34% 29.80 in 10.0 mi North 20.7 mph 26.5 mph N/A   Clear
1:53 PM 60.1 °F - 32.0 °F 35% 29.82 in 10.0 mi North 23.0 mph 27.6 mph N/A   Clear
2:53 PM 57.9 °F - 32.0 °F 37% 29.83 in 10.0 mi NNE 19.6 mph - N/A   Clear
3:53 PM 57.0 °F - 32.0 °F 39% 29.84 in 10.0 mi NNE 17.3 mph - N/A   Clear
4:53 PM 54.0 °F - 28.0 °F 37% 29.85 in 10.0 mi North 17.3 mph - N/A   Clear
5:53 PM 48.0 °F - 21.9 °F 36% 29.88 in 10.0 mi North 11.5 mph - N/A   Clear
6:53 PM 45.0 °F 40.1 °F 19.9 °F 37% 29.91 in 10.0 mi North 9.2 mph - N/A   Clear
7:53 PM 42.1 °F 37.1 °F 18.0 °F 38% 29.94 in 10.0 mi North 8.1 mph - N/A   Clear
8:53 PM 39.9 °F 36.7 °F 18.0 °F 41% 29.94 in 10.0 mi North 4.6 mph - N/A   Clear
9:53 PM 39.0 °F 34.8 °F 18.0 °F 43% 29.93 in 10.0 mi North 5.8 mph - N/A   Clear
10:53 PM 37.0 °F 32.4 °F 18.0 °F 46% 29.93 in 10.0 mi North 5.8 mph - N/A   Clear
11:53 PM 37.0 °F 32.4 °F 18.0 °F 46% 29.91 in 10.0 mi NNE 5.8 mph - N/A   Partly Cloudy